Location: Sewell
(39.7660°N, 75.1450°W)
Time: 07:52:20
(UTC-04:00)

ISS - Visible Passes

Search period start: 01 November 2014 00:00
Search period end: 10 November 2014 23:00
Orbit: 412 x 417 km, 51.6° (Epoch: 01 November)

Date Brightness Start Highest point End Pass type
(mag) Time Alt. Az. Time Alt. Az. Time Alt. Az.
07 Nov -0.1 05:33:55 10° SSE 05:35:42 14° SE 05:37:30 10° E visible
09 Nov -1.8 05:30:06 10° SSW 05:33:12 38° SE 05:36:19 10° ENE visible
10 Nov -0.8 04:42:15 15° S 04:43:50 21° SE 04:46:25 10° E visible
